Content
SEND FEEDBACK

Daily
Averages
Monthly
Summary
Turkmenistan

ASHGABAT, TURKMENISTAN


Home > Asia > Turkmenistan
Elevation: 775 feet     Latitude: 37 58N     Longitude: 058 20E

WEATHER
 
SELECT A DAY
Number of Records: 177,393;   Date Range: 3/15/97 - 8/28/14
 
SHARE

PRINT THIS DATA

[ ← Previous Day ]
WEATHER ALMANAC - SEPTEMBER 18, 2013
[ Next Day → ]
[ °C ]   °F
Weather ElementAverageHighLow
Temperature81.1 °F98.6 °F (4:30 pm)60.8 °F (7:00 am)
Dewpoint37.9 °F50 °F (8:00 pm)28.4 °F (2:00 pm)
Humidity23.4 %52 % (7:00 am)7 % (5:00 pm)
Barometer29.66 in29.74 in (1:00 am)29.58 in (5:00 pm)
Wind Speed6.6 mph13.4 mph (12:00 pm)
Weather ElementAverage
Visibility6 mi
Wind DirectionESE (96.2 °)

Weather ElementTotal
Precipitation---
Cooling Degree Days14.7 (Base 65)
Growing Degree Days29.7 (Base 50)
Averaged from 35 records on September 18, 2013
WEATHER CONDITIONS BREAKOUT
WIND DIRECTION BREAKOUT
WEATHER BY HOUR - SEPTEMBER 18, 2013
[ °C ]   °F
Local TimeTemperatureDewpointHumidityBarometerVisibilityWind DirectionWind SpeedGust SpeedPrecipitationEventsConditions
1:00 AM69.8 °F37.4 °F31 %29.74 in6.2 miENE (60°)6.7 mphClear
2:00 AM68.0 °F46.0 °F34 %29.73 in6.0 miEast (100°)6.7 mph
2:00 AM68.0 °F37.4 °F33 %29.71 in6.2 miEast (100°)6.7 mphClear
3:00 AM66.2 °F39.2 °F37 %29.68 in6.2 miSE (130°)4.5 mphScattered Clouds
4:00 AM64.4 °F42.8 °F45 %29.68 in6.2 miNorth (10°)4.5 mphScattered Clouds
5:00 AM64.4 °F41.0 °F42 %29.68 in6.2 miSSE (160°)4.5 mphClear
5:00 AM62.0 °F44.0 °F41 %29.69 in6.0 miSSE (160°)4.5 mph
6:00 AM62.6 °F41.0 °F45 %29.68 in6.2 miVariable2.2 mphClear
7:00 AM60.8 °F42.8 °F52 %29.68 in6.2 miCalmClear
8:00 AM66.2 °F41.0 °F40 %29.71 in6.2 miCalmClear
8:00 AM62.0 °F47.0 °F48 %29.71 in6.0 miCalm
9:00 AM71.6 °F37.4 °F29 %29.68 in6.2 miEast (90°)4.5 mphClear
10:00 AM75.2 °F41.0 °F29 %29.68 in6.2 miEast (90°)6.7 mphClear
11:00 AM81.0 °F42.0 °F15 %29.69 in6.0 miEast (90°)8.9 mph
11:00 AM82.4 °F33.8 °F17 %29.71 in6.2 miEast (90°)8.9 mphClear
12:00 PM86.0 °F32.0 °F14 %29.68 in6.2 miEast (90°)13.4 mphClear
1:00 PM89.6 °F32.0 °F13 %29.68 in6.2 miESE (110°)13.4 mphClear
2:00 PM93.2 °F28.4 °F10 %29.65 in6.2 miESE (120°)13.4 mphClear
2:00 PM92.0 °F40.0 °F9 %29.64 in6.0 miSE (130°)13.4 mph
3:00 PM95.0 °F30.2 °F10 %29.62 in6.2 miESE (110°)11.2 mphClear
3:30 PM96.8 °F30.2 °F10 %29.62 in6.2 miESE (110°)11.2 mphClear
4:00 PM96.8 °F30.2 °F10 %29.62 in6.2 miEast (100°)13.4 mphClear
4:30 PM98.6 °F32.0 °F10 %29.62 in6.2 miEast (100°)11.2 mphClear
5:00 PM96.0 °F40.0 °F7 %29.58 in6.0 miENE (70°)6.7 mph
5:00 PM96.8 °F30.2 °F10 %29.59 in6.2 miEast (90°)8.9 mphClear
5:30 PM96.8 °F32.0 °F10 %29.59 in6.2 miEast (100°)6.7 mphClear
6:00 PM96.8 °F32.0 °F10 %29.59 in6.2 miEast (90°)6.7 mphClear
6:30 PM95.0 °F33.8 °F12 %29.59 in6.2 miEast (90°)4.5 mphClear
7:00 PM91.4 °F33.8 °F13 %29.59 in6.2 miESE (110°)4.5 mphClear
8:00 PM85.0 °F50.0 °F19 %29.60 in6.0 miWSW (250°)4.5 mphClear
8:00 PM86.0 °F37.4 °F18 %29.62 in5.6 miVariable2.2 mphScattered Clouds
9:00 PM84.2 °F39.2 °F20 %29.65 in5.0 miSouth (190°)4.5 mphPartly Cloudy
10:00 PM82.4 °F41.0 °F23 %29.65 in5.6 miSouth (190°)4.5 mphPartly Cloudy
11:00 PM77.0 °F47.0 °F24 %29.65 in6.0 miENE (70°)2.2 mphMostly Cloudy
11:00 PM77.0 °F41.0 °F28 %29.65 in4.3 miENE (70°)4.5 mphMostly Cloudy
Hourly data recorded from UTAA, located miles away from Ashgabat, Turkmenistan







STORIES FROM OUR PARTNERS